Cannes - Mandelieu Airport

Airport
ICAO code: 
LFMD
IATA Code: 
CEQ
Summary
ICAO Region: 
EUR
Territory: 
Location: 
Mandelieu, Provence-Alpes-Cote d'Azur
Serving: 
Cannes
Elevation: 
13 ft
Coordinates: 
Aerial View: 
43° 32' 49.481" N, 6° 57' 12.388" E
Airport WX: 
Cumulonimbus
Metar
Observation
LFMD 071530Z AUTO VRB02KT CAVOK 11/05 Q1012 NOSIG
Station
Cannes
Date/Time
2021-12-07 15:30:00
Wind speed
02 kts
Lowest cloud amount
clouds and visibility OK
Temperature
11°C
Dew point
5°C
Humidity
66%
QNH
1012 hPa
Weather condition
n/a

Description

Cannes - Mandelieu Airport is an airport serving the city of Cannes. It is located 5 km west of Cannes.

Climatology

Dry-summer subtropical ”Mditerranean" climate (Köppen climate classification Csa) - characterized by hot, dry summers and mild winters. During the summer, subtropical high pressure cells dominate, making rainfall unlikely except for the occasional thunderstorm. In the winter, periodic storms bring rain (snow at higher elevations).

Runways

Designator Length Width Surface Rops
5/23 760 30 ASP Yes/Yes
17/35 1610 45 ASP Yes/Yes
Airport map: 
Aerial View: 

SKYbrary Partners:

Safety knowledge contributed by: